TimeHST,TemperatureF,Dew PointF,Humidity,Sea Level PressureIn,VisibilityMPH,Wind Direction,Wind SpeedMPH,Gust SpeedMPH,PrecipitationIn,Events,Conditions,WindDirDegrees,DateUTC
12:56 AM,75.0,64.9,71,30.06,10.0,Calm,Calm,-,N/A,,Partly Cloudy,0,2012-10-31 10:56:00
1:56 AM,72.0,64.0,76,30.06,10.0,SE,5.8,-,N/A,,Clear,140,2012-10-31 11:56:00
2:56 AM,72.0,62.1,71,30.04,10.0,ESE,4.6,-,N/A,,Clear,110,2012-10-31 12:56:00
3:56 AM,71.1,64.0,78,30.04,10.0,East,3.5,-,N/A,,Clear,80,2012-10-31 13:56:00
4:56 AM,71.1,-9999,N/A,30.03,10.0,NE,3.5,-,N/A,,Clear,50,2012-10-31 14:56:00
5:56 AM,70.0,-9999,N/A,30.04,10.0,East,4.6,-,N/A,,Clear,90,2012-10-31 15:56:00
6:56 AM,70.0,64.9,84,30.06,10.0,East,4.6,-,N/A,,Clear,80,2012-10-31 16:56:00
7:56 AM,75.0,70.0,84,30.07,10.0,East,3.5,-,N/A,,Clear,100,2012-10-31 17:56:00
8:56 AM,80.1,72.0,76,30.07,10.0,WNW,3.5,-,N/A,,Clear,290,2012-10-31 18:56:00
9:56 AM,81.0,73.0,77,30.09,10.0,NW,6.9,-,N/A,,Clear,320,2012-10-31 19:56:00
10:56 AM,81.0,68.0,65,30.08,10.0,NW,4.6,-,N/A,,Clear,310,2012-10-31 20:56:00
11:56 AM,82.9,61.0,47,30.06,10.0,NW,8.1,-,N/A,,Clear,320,2012-10-31 21:56:00
12:56 PM,84.0,62.1,47,30.03,10.0,NNW,11.5,-,N/A,,Clear,340,2012-10-31 22:56:00
1:56 PM,84.0,57.0,40,30.00,10.0,NW,9.2,-,N/A,,Clear,320,2012-10-31 23:56:00
2:56 PM,82.9,59.0,44,29.98,10.0,West,4.6,-,N/A,,Clear,280,2012-11-01 00:56:00
3:56 PM,82.0,57.0,42,29.97,10.0,SSW,5.8,-,N/A,,Clear,210,2012-11-01 01:56:00
4:56 PM,82.0,55.9,41,29.98,10.0,SSW,8.1,-,N/A,,Scattered Clouds,210,2012-11-01 02:56:00
5:56 PM,80.1,34.0,19,29.99,10.0,SW,9.2,-,N/A,,Partly Cloudy,220,2012-11-01 03:56:00
6:56 PM,80.1,59.0,48,30.00,10.0,Variable,3.5,-,N/A,,Scattered Clouds,0,2012-11-01 04:56:00
7:56 PM,78.1,57.9,50,30.02,10.0,East,3.5,-,N/A,,Clear,90,2012-11-01 05:56:00
8:56 PM,75.0,62.1,64,30.03,10.0,East,3.5,-,N/A,,Clear,80,2012-11-01 06:56:00
9:56 PM,73.9,60.1,62,30.04,10.0,East,3.5,-,N/A,,Clear,80,2012-11-01 07:56:00
10:56 PM,72.0,64.9,78,30.03,10.0,ESE,4.6,-,N/A,,Clear,120,2012-11-01 08:56:00
11:56 PM,72.0,59.0,64,30.03,10.0,ENE,4.6,-,N/A,,Clear,70,2012-11-01 09:56:00